[[{"header":{"parameterUnit":"m.s-1","parameterCategory":1,"la1":30.2991,"la2":30.254,"lo1":-89.0895,"lo2":-89.0444,"dy":0.0017,"dx":0.0017,"nx":28,"ny":28,"refTime":"2025-01-31T03:00:00:Z","depth":0,"parameterNumber":2,"parameterNumberName":"U-component_of_WINDS"},"data":[0,0,0,0,0,0,0,0,0,0,0,0,0,0,0,0,0,0,0,0,0,0,0,0,0,0,0,0,0,0,0,0,0,0,0,0,0,0,0,0,0,0,0,0,0,0,0,0,0,0,0,0,0,0,0,0,0,0,3.4165,3.4165,0,3.419,3.4191,3.4191,3.4164,3.4163,3.4162,3.4161,3.4191,3.4192,3.4194,0,0,0,0,0,0,0,0,0,0,0,0,0,3.4097,3.4098,3.4165,3.4165,3.4165,3.419,3.4191,3.4191,3.4164,3.4163,3.4162,3.416,3.419,3.4192,3.4194,0,0,0,0,0,0,0,0,0,0,0,0,0,3.4125,3.4099,3.4165,3.4155,3.4154,3.419,3.4191,3.4191,3.4164,3.4163,3.4161,3.416,3.4189,3.4192,3.4194,3.4242,0,0,3.4203,3.4204,0,0,0,0,0,0,0,0,3.4123,3.4128,3.4156,3.4156,3.4155,3.4172,3.4178,3.4208,3.4165,3.4161,3.4161,3.4159,3.4186,3.4189,3.4197,3.4244,3.4245,3.4203,3.4204,3.4206,3.4206,0,0,0,0,0,0,0,3.4122,3.4126,3.4175,3.4156,3.4156,3.4151,3.4153,3.4183,3.4182,3.4161,3.4159,3.4162,3.4185,3.4195,3.4198,3.4246,3.4203,3.4205,3.4207,3.4208,3.4335,3.4337,0,0,0,0,0,0,3.412,3.4125,3.4174,3.4176,3.4135,3.4153,3.4156,3.4168,3.4182,3.4182,3.4164,3.4161,3.4191,3.4195,3.4199,3.4257,3.4206,3.4208,3.421,3.4334,3.4336,3.4338,0,0,0,0,0,0,3.4119,3.4125,3.4173,3.415,3.4156,3.4156,3.4171,3.417,3.4179,3.4183,3.4183,3.4173,3.419,3.4195,3.4232,3.4257,3.4209,3.4212,3.4331,3.4334,3.4337,3.4373,0,0,0,0,0,0,3.4117,3.4124,3.4141,3.415,3.4157,3.4205,3.4172,3.4171,3.4183,3.418,3.4192,3.4193,3.4189,3.4228,3.4235,3.426,3.4214,3.4329,3.4333,3.4336,3.437,3.4377,3.4383,0,0,0,0,0,3.4115,3.4151,3.4142,3.4148,3.4178,3.4206,3.421,3.4204,3.4185,3.4203,3.4207,3.4192,3.4254,3.4232,3.4239,3.4266,3.4328,3.4332,3.4336,3.4367,3.4375,3.4383,0,0,0,0,0,0,3.4145,3.4152,3.4142,3.4182,3.4194,3.4201,3.4224,3.4213,3.4231,3.4227,3.422,3.4223,3.4262,3.4268,3.4244,3.4314,3.4288,3.4294,3.4309,3.4317,3.4324,3.4322,3.4216,0,0,0,0,0,3.4157,3.4178,3.4183,3.4218,3.4224,3.4223,3.4235,3.4229,3.4242,3.4247,3.4252,3.4266,3.4288,3.4303,3.4324,3.4371,3.4374,3.4393,3.4399,3.4405,3.441,3.4437,3.4446,3.4351,3.4351,3.4351,0,0,3.418,3.4187,3.42,3.4224,3.4232,3.4256,3.4227,3.4253,3.4271,3.4251,3.4286,3.4291,3.4306,3.4349,3.4368,3.4354,3.4437,3.441,3.4414,3.4416,3.4442,3.4451,3.4459,3.4354,3.4353,3.4353,0,0,3.4236,3.4242,3.4272,3.4282,3.4294,3.4294,3.4301,3.4311,3.4314,3.4349,3.4335,3.4357,3.4395,3.4407,3.4418,3.448,3.4469,3.4487,3.4522,3.4548,3.4556,3.4562,3.4586,3.4594,3.4492,3.4493,3.4493,0,3.4264,3.4297,3.429,3.4317,3.4329,3.4311,3.4343,3.4353,3.4372,3.4381,3.4366,3.4415,3.4424,3.447,3.4485,3.4494,3.4504,3.4486,3.4555,3.4561,3.4567,3.459,3.4599,3.4495,3.4494,3.4494,3.4494,0,3.4332,3.4356,3.4379,3.4398,3.4413,3.4442,3.444,3.4456,3.445,3.4452,3.449,3.45,3.4523,3.4533,3.4528,3.4579,3.4571,3.4556,3.4529,3.4579,3.46,3.4608,3.4498,3.4497,3.4496,3.4496,0,0,3.4406,3.4421,3.443,3.4439,3.4453,3.4472,3.4502,3.4524,3.4539,3.4554,3.458,3.4614,3.46,3.4612,3.4608,3.4631,3.4682,3.4613,3.4614,3.4627,3.4741,3.4753,3.4763,3.4675,3.4676,3.4677,3.474,0,3.4462,3.4512,3.4507,3.4556,3.4579,3.4564,3.4591,3.4603,3.4606,3.4628,3.4632,3.4656,3.4636,3.4643,3.4666,3.4671,3.4705,3.4667,3.47,3.4701,3.4697,3.4773,3.4785,3.4844,3.4748,3.475,3.4751,0,3.4534,3.4551,3.4602,3.4614,3.4624,3.4647,3.4668,3.4688,3.4703,3.4704,3.4719,3.4712,3.4744,3.4717,3.4762,3.4736,3.475,3.4755,3.4757,3.476,3.4729,3.4779,3.4863,3.4872,3.4763,3.4762,3.4762,0,3.4583,3.4619,3.4655,3.4663,3.4678,3.4695,3.4703,3.4716,3.473,3.475,3.4759,3.4782,3.4795,3.4813,3.4813,3.4793,3.486,3.4832,3.4863,3.4863,3.4877,3.4876,3.4964,3.4886,3.4885,3.4885,3.4885,0,3.4646,3.4678,3.4677,3.4699,3.4735,3.4731,3.4767,3.4773,3.4785,3.4809,3.4798,3.4821,3.4819,3.4844,3.4844,3.4882,3.4888,3.4891,3.489,3.4892,3.4891,3.49,3.4896,3.4888,3.4887,3.4887,3.4886,0,3.4707,3.4708,3.4746,3.4758,3.4762,3.4788,3.4799,3.482,3.4823,3.4854,3.4861,3.4866,3.4894,3.4896,3.4928,3.4928,3.4975,3.497,3.497,3.4969,3.5,3.4997,3.5097,3.511,3.5023,3.5023,3.5024,0,3.4747,3.4772,3.4787,3.4802,3.481,3.4834,3.4849,3.4846,3.4862,3.4883,3.4903,3.4929,3.495,3.4996,3.5004,3.5029,3.5025,3.5058,3.5028,3.503,3.5026,3.5025,3.5028,3.5064,3.5065,3.5066,3.5066,0,3.4819,3.4819,3.484,3.4862,3.488,3.4897,3.4913,3.4927,3.4926,3.4946,3.4974,3.499,3.5024,3.5051,3.5076,3.5085,3.5077,3.5076,3.5084,3.5086,3.5085,3.5086,3.4986,3.5073,3.5072,3.5072,3.5072,3.5071,3.4871,3.4893,3.4907,3.4932,3.4944,3.496,3.4981,3.4987,3.501,3.5036,3.5034,3.5066,3.5083,3.5115,3.5127,3.5153,3.5142,3.5154,3.5157,3.516,3.5164,3.5081,3.5158,3.5157,3.5157,3.5157,3.5157,0,3.4942,3.4951,3.4974,3.4997,3.5018,3.5007,3.5025,3.5043,3.5071,3.5087,3.5108,3.5142,3.5169,3.5179,3.5206,3.5225,3.5222,3.5232,3.5231,3.5234,3.5172,3.5162,3.5235,3.5235,3.5235,3.5235,3.5234,3.5234,3.4982,3.5018,3.502,3.5063,3.5072,3.5103,3.5114,3.513,3.5143,3.518,3.5203,3.5209,3.5224,3.5252,3.5277,3.528,3.529,3.5303,3.5304,3.5245,3.5238,3.523,3.5221,3.5305,3.5305,3.5363,3.5364,3.5364]},{"header":{"parameterUnit":"m.s-1","parameterCategory":1,"la1":30.2991,"la2":30.254,"lo1":-89.0895,"lo2":-89.0444,"dy":0.0017,"dx":0.0017,"nx":28,"ny":28,"refTime":"2025-01-31T03:00:00:Z","depth":0,"parameterNumber":3,"parameterNumberName":"V-component_of_WINDS"},"data":[0,0,0,0,0,0,0,0,0,0,0,0,0,0,0,0,0,0,0,0,0,0,0,0,0,0,0,0,0,0,0,0,0,0,0,0,0,0,0,0,0,0,0,0,0,0,0,0,0,0,0,0,0,0,0,0,0,0,1.7644,1.7644,0,1.7661,1.7661,1.7662,1.7664,1.7663,1.7663,1.7663,1.7679,1.768,1.7681,0,0,0,0,0,0,0,0,0,0,0,0,0,1.7611,1.7611,1.7644,1.7644,1.7644,1.7661,1.7662,1.7662,1.7664,1.7663,1.7663,1.7663,1.7679,1.768,1.7681,0,0,0,0,0,0,0,0,0,0,0,0,0,1.7626,1.7612,1.7644,1.7647,1.7648,1.7661,1.7662,1.7662,1.7664,1.7663,1.7663,1.7663,1.7679,1.768,1.7681,1.7691,0,0,1.7683,1.7684,0,0,0,0,0,0,0,0,1.7625,1.7627,1.7647,1.7647,1.7648,1.766,1.7656,1.7672,1.7664,1.7658,1.7663,1.7663,1.7673,1.7674,1.7678,1.7692,1.7693,1.7684,1.7684,1.7684,1.7685,0,0,0,0,0,0,0,1.7624,1.7627,1.7651,1.7647,1.7648,1.7648,1.7649,1.7659,1.7667,1.7658,1.7658,1.766,1.7673,1.7677,1.7679,1.7693,1.7684,1.7684,1.7685,1.7685,1.7716,1.7716,0,0,0,0,0,0,1.7623,1.7626,1.765,1.7651,1.7636,1.7648,1.7651,1.7656,1.7666,1.7668,1.7661,1.766,1.7676,1.7678,1.7679,1.7692,1.7684,1.7685,1.7686,1.7716,1.7716,1.7716,0,0,0,0,0,0,1.7622,1.7625,1.765,1.7639,1.7642,1.7649,1.7656,1.7657,1.7661,1.7668,1.767,1.7663,1.7676,1.7678,1.7688,1.7692,1.7686,1.7687,1.7715,1.7716,1.7716,1.7718,0,0,0,0,0,0,1.7621,1.7625,1.7629,1.7639,1.7642,1.7659,1.7656,1.7657,1.7663,1.7663,1.7671,1.7673,1.7676,1.7687,1.7689,1.7694,1.7687,1.7715,1.7715,1.7716,1.7717,1.7718,1.7719,0,0,0,0,0,1.762,1.7629,1.7629,1.7632,1.7648,1.7659,1.7661,1.7665,1.7663,1.7667,1.7672,1.7672,1.7692,1.7688,1.7691,1.7695,1.7715,1.7715,1.7716,1.7717,1.7718,1.7719,0,0,0,0,0,0,1.7619,1.763,1.7631,1.7643,1.765,1.7659,1.7665,1.7666,1.7673,1.7673,1.7677,1.7679,1.7689,1.7693,1.7689,1.7706,1.7703,1.7704,1.7703,1.7704,1.7704,1.7703,1.7688,0,0,0,0,0,1.762,1.7629,1.7638,1.7648,1.7651,1.7657,1.7662,1.7665,1.7672,1.7675,1.768,1.7687,1.7694,1.7699,1.7707,1.7718,1.7719,1.7722,1.7723,1.7724,1.7724,1.773,1.7731,1.7718,1.7718,1.7718,0,0,1.7623,1.763,1.7635,1.7648,1.7653,1.7661,1.766,1.7669,1.7674,1.7676,1.7686,1.769,1.7698,1.7709,1.7713,1.7712,1.7728,1.7724,1.7725,1.7725,1.7731,1.7732,1.7733,1.7719,1.7719,1.7719,0,0,1.7632,1.7638,1.7647,1.7653,1.7662,1.7666,1.7668,1.7677,1.768,1.769,1.7692,1.7698,1.7711,1.7716,1.7721,1.7731,1.7732,1.7734,1.7737,1.7743,1.7744,1.7745,1.7748,1.7749,1.7734,1.7734,1.7734,0,1.7634,1.7647,1.7651,1.766,1.7665,1.7668,1.7676,1.7681,1.7692,1.7695,1.7694,1.771,1.7715,1.7727,1.7729,1.7733,1.7735,1.7733,1.7743,1.7744,1.7745,1.7748,1.775,1.7735,1.7735,1.7735,1.7735,0,1.7649,1.7657,1.7663,1.7674,1.768,1.7688,1.7694,1.7699,1.7701,1.7705,1.7715,1.7721,1.773,1.7733,1.7735,1.7744,1.7743,1.7743,1.774,1.7747,1.775,1.7751,1.7735,1.7735,1.7735,1.7735,0,0,1.7658,1.7671,1.7673,1.7677,1.7687,1.7693,1.7702,1.771,1.7715,1.7722,1.7728,1.7739,1.7739,1.7744,1.7746,1.7751,1.7758,1.7749,1.775,1.775,1.7769,1.7769,1.777,1.7758,1.7759,1.7759,1.7768,0,1.7667,1.7683,1.7687,1.77,1.7707,1.771,1.7717,1.7723,1.7727,1.7734,1.7738,1.7745,1.7744,1.7747,1.7752,1.7756,1.7762,1.7756,1.7764,1.7764,1.7762,1.7772,1.7772,1.778,1.7769,1.7769,1.7769,0,1.7681,1.7688,1.7702,1.771,1.7714,1.772,1.7728,1.7735,1.7742,1.7744,1.775,1.7752,1.776,1.7757,1.7768,1.7763,1.7767,1.777,1.777,1.7771,1.7767,1.7772,1.7783,1.7784,1.7771,1.7771,1.7771,0,1.7685,1.7699,1.7709,1.7713,1.7723,1.7727,1.7732,1.7739,1.7743,1.775,1.7753,1.7761,1.7765,1.7771,1.7774,1.7772,1.7785,1.7782,1.7786,1.7786,1.7789,1.7788,1.78,1.7792,1.7792,1.7792,1.7792,0,1.7695,1.7704,1.7711,1.7717,1.7726,1.7731,1.7739,1.7743,1.7749,1.7756,1.7758,1.7764,1.7769,1.7775,1.7778,1.7786,1.7788,1.779,1.779,1.7789,1.7789,1.7791,1.7791,1.7792,1.7792,1.7792,1.7792,0,1.7702,1.7707,1.7718,1.7727,1.7729,1.7736,1.7743,1.7748,1.7752,1.776,1.7762,1.7768,1.7776,1.778,1.779,1.7791,1.78,1.7801,1.7798,1.7798,1.7802,1.7802,1.7815,1.7817,1.7808,1.7808,1.7808,0,1.7708,1.7714,1.7724,1.7729,1.7733,1.7741,1.7746,1.775,1.7755,1.7763,1.7768,1.7776,1.7782,1.7794,1.7799,1.7806,1.7806,1.781,1.7807,1.7806,1.7806,1.7805,1.7805,1.7811,1.7811,1.7811,1.7811,0,1.7718,1.772,1.7728,1.7736,1.7742,1.7749,1.7755,1.7759,1.7764,1.7769,1.7777,1.7782,1.7792,1.7799,1.7807,1.7811,1.7811,1.7812,1.7813,1.7812,1.781,1.7811,1.7799,1.7812,1.7812,1.7812,1.7811,1.7811,1.7724,1.773,1.7737,1.7745,1.7751,1.7757,1.7762,1.7767,1.7774,1.7782,1.7784,1.7793,1.7799,1.7809,1.7813,1.7819,1.7818,1.782,1.7821,1.7821,1.7821,1.781,1.782,1.782,1.782,1.782,1.782,0,1.7734,1.7739,1.7746,1.7755,1.7761,1.7762,1.7769,1.7774,1.7782,1.7788,1.7794,1.7803,1.781,1.7815,1.7822,1.7826,1.7827,1.7828,1.7827,1.7828,1.7821,1.7819,1.7827,1.7827,1.7827,1.7827,1.7827,1.7827,1.774,1.7749,1.7752,1.7764,1.7769,1.7777,1.7781,1.7786,1.7791,1.7801,1.7807,1.7811,1.7816,1.7824,1.783,1.7831,1.7834,1.7835,1.7836,1.783,1.7829,1.7828,1.7826,1.7835,1.7835,1.7842,1.7842,1.7842]}]]